Location: Courcelles
(49.2596°N, 1.7419°E)
Time: 19:55:20
(UTC+00:00)

Cosmos 2278 Rocket - Pass Details

Date: 17 November 2025
Orbit: 841 x 843 km, 71.0° (Epoch: 10 December)

Event Time Altitude Azimuth Distance (km) Brightness Sun altitude
Rises 17:50:03 0° 204° (SSW) 3,385 5.8 -16.3°
Reaches altitude 10° 17:52:28 10° 204° (SSW) 2,454 5.1 -16.7°
Maximum altitude 17:58:07 85° 117° (ESE) 852 2.1 -17.6°
Enters shadow 18:02:51 15° 30° (NNE) 2,110 3.9 -18.4°
